Regional Weather Roundup
Issued by NWS

Home | Current Version | Previous Version | Text Only | Print | Product List | Glossary On
Versions: 1 2 3 4 5 6 7 8 9 10 11 12 13 14 15 16 17 18 19 20 21 22 23 24 25 26 27 28 29 30 31 32 33 34 35 36 37 38 39 40 41 42 43 44 45 46 47 48 49 50
000
ASUS42 KKEY 301110
RWRKEY

FLORIDA REGIONAL WEATHER ROUNDUP FOR THE FLORIDA KEYS
NATIONAL WEATHER SERVICE KEY WEST FLORIDA
600 AM EST FRI JAN 30 2015

...SOUTH FLORIDA AND THE KEYS...

CITY           SKY/WX    TMP DP  RH WIND       PRES   REMARKS
FORT MYERS     CLEAR     49  47  93 CALM      30.19R
SW REGIONAL AP CLEAR     50  46  86 CALM      30.20R
NAPLES         CLEAR     52  50  93 CALM      30.19R
MIAMI          PTCLDY    60  53  77 W3        30.18R
WEST KENDALL   CLOUDY    60  52  74 NW5       30.18R
HOMESTEAD      CLOUDY    60  52  77 N7        30.17R
MARATHON       MOCLDY    64  57  78 N9        30.16R
BOCA CHICA NAS PTCLDY    65  56  72 N9        30.17R
KEY WEST INTL  MOCLDY    63  56  78 N9        30.17R

...INTERNATIONAL WEATHER...

CITY           SKY/WX    TMP DP  RH WIND       PRES   REMARKS
NASSAU BAHAMAS PTCLDY    57  50  77 CALM      30.13F
CANCUN MEXICO  CLEAR     59  55  88 CALM      30.13R
COZUMEL MEXICO   N/A    N/A N/A N/A MISG        N/A

ADJACENT COASTAL WATERS...

STATION/POSITION TIME  SKY/WX   TEMP    WIND        PRES    WAVE
                                AIR SEA DIR/SP/G            HT/PER
                 (UTC)          (F)     (DEG/KT/KT) (MB)    (FT/S)
PULASKI SHOAL LI NOT AVBL
SAND KEY         NOT AVBL
SOMBRERO KEY     NOT AVBL
LONG KEY         NOT AVBL
MOLASSES REEF    NOT AVBL
FOWEY ROCKS      NOT AVBL
Buoy 42080       NOT AVBL

$$



USA.gov is the U.S. government's official web portal to all federal, state and local government web resources and services.